[[{"header":{"parameterUnit":"m.s-1","parameterCategory":1,"la1":30.2991,"la2":30.254,"lo1":-89.0895,"lo2":-89.0444,"dy":0.0017,"dx":0.0017,"nx":28,"ny":28,"refTime":"2024-12-17T03:00:00:Z","depth":0,"parameterNumber":2,"parameterNumberName":"U-component_of_WINDS"},"data":[0,0,0,0,0,0,0,0,0,0,0,0,0,0,0,0,0,0,0,0,0,0,0,0,0,0,0,0,0,0,0,0,0,0,0,0,0,0,0,0,0,0,0,0,0,0,0,0,0,0,0,0,0,0,0,0,0,0,-2.8866,-2.8866,0,-2.8932,-2.8932,-2.8933,-2.891,-2.8908,-2.8907,-2.8906,-2.8977,-2.898,-2.8983,0,0,0,0,0,0,0,0,0,0,0,0,0,-2.8724,-2.8726,-2.8866,-2.8866,-2.8867,-2.8932,-2.8932,-2.8933,-2.891,-2.8908,-2.8907,-2.8905,-2.8976,-2.898,-2.8984,0,0,0,0,0,0,0,0,0,0,0,0,0,-2.8787,-2.8727,-2.8865,-2.8863,-2.8864,-2.8931,-2.8932,-2.8934,-2.8911,-2.8908,-2.8906,-2.8904,-2.8974,-2.8979,-2.8984,-2.9059,0,0,-2.8999,-2.9001,0,0,0,0,0,0,0,0,-2.8784,-2.8792,-2.8863,-2.8864,-2.8864,-2.891,-2.8908,-2.8976,-2.8911,-2.8893,-2.8906,-2.8903,-2.8957,-2.8963,-2.898,-2.9062,-2.9065,-2.9,-2.9003,-2.9005,-2.9006,0,0,0,0,0,0,0,-2.8779,-2.8789,-2.8892,-2.8864,-2.8865,-2.8861,-2.8867,-2.8921,-2.8937,-2.8894,-2.8893,-2.8901,-2.8957,-2.8976,-2.8982,-2.9066,-2.8999,-2.9004,-2.9007,-2.9009,-2.9213,-2.9216,0,0,0,0,0,0,-2.8774,-2.8786,-2.889,-2.8894,-2.8818,-2.8865,-2.8872,-2.8898,-2.8936,-2.8939,-2.8903,-2.8899,-2.8968,-2.8976,-2.8984,-2.9074,-2.9005,-2.9009,-2.9012,-2.9211,-2.9214,-2.9217,0,0,0,0,0,0,-2.8771,-2.8783,-2.8887,-2.884,-2.8852,-2.887,-2.8899,-2.89,-2.8919,-2.8942,-2.8945,-2.8919,-2.8967,-2.8977,-2.904,-2.9076,-2.9011,-2.9016,-2.9208,-2.9212,-2.9215,-2.9254,0,0,0,0,0,0,-2.8767,-2.8782,-2.881,-2.884,-2.8855,-2.8941,-2.8901,-2.8903,-2.8927,-2.8924,-2.8958,-2.8962,-2.8966,-2.9033,-2.9045,-2.9082,-2.902,-2.9205,-2.921,-2.9214,-2.9249,-2.9258,-2.9266,0,0,0,0,0,-2.8762,-2.8819,-2.8811,-2.8824,-2.8889,-2.8943,-2.8951,-2.8954,-2.893,-2.8958,-2.8973,-2.8961,-2.9071,-2.904,-2.9053,-2.9092,-2.9203,-2.9208,-2.9214,-2.9246,-2.9257,-2.9266,0,0,0,0,0,0,-2.8793,-2.8823,-2.8815,-2.8883,-2.891,-2.8939,-2.8974,-2.8966,-2.9001,-2.8997,-2.9,-2.9008,-2.9073,-2.9089,-2.9054,-2.9166,-2.9133,-2.9142,-2.9153,-2.9164,-2.9172,-2.9166,-2.9024,0,0,0,0,0,-2.8808,-2.8847,-2.8872,-2.893,-2.8944,-2.8957,-2.898,-2.898,-2.9009,-2.9021,-2.9041,-2.907,-2.9112,-2.9139,-2.9178,-2.9253,-2.926,-2.9286,-2.9294,-2.9301,-2.9308,-2.9348,-2.936,-2.9235,-2.9235,-2.9235,0,0,-2.8839,-2.886,-2.8885,-2.8936,-2.8958,-2.9,-2.8967,-2.9013,-2.9044,-2.9028,-2.9088,-2.9104,-2.9138,-2.9207,-2.9238,-2.9222,-2.9344,-2.9308,-2.9313,-2.9317,-2.9355,-2.9367,-2.9378,-2.9239,-2.9238,-2.9238,0,0,-2.8916,-2.8936,-2.8986,-2.9008,-2.904,-2.9049,-2.9061,-2.9092,-2.9101,-2.9161,-2.915,-2.9189,-2.926,-2.9284,-2.9306,-2.9394,-2.9384,-2.9408,-2.945,-2.949,-2.95,-2.9509,-2.954,-2.9551,-2.9415,-2.9415,-2.9415,0,-2.895,-2.9011,-2.9013,-2.906,-2.9083,-2.9071,-2.9122,-2.9144,-2.9188,-2.9205,-2.9187,-2.9276,-2.9298,-2.9372,-2.9394,-2.9412,-2.9426,-2.9403,-2.9498,-2.9507,-2.9515,-2.9545,-2.9556,-2.9417,-2.9417,-2.9417,-2.9417,0,-2.9052,-2.9095,-2.9132,-2.9174,-2.9202,-2.9251,-2.9261,-2.929,-2.9288,-2.9299,-2.9361,-2.9387,-2.9431,-2.945,-2.9449,-2.9524,-2.9513,-2.9497,-2.9463,-2.953,-2.9557,-2.9569,-2.9421,-2.942,-2.9419,-2.9419,0,0,-2.9149,-2.9191,-2.9205,-2.9224,-2.9259,-2.9293,-2.9343,-2.9385,-2.9409,-2.9441,-2.9483,-2.9544,-2.9529,-2.9554,-2.9556,-2.9591,-2.9659,-2.957,-2.9571,-2.9585,-2.9743,-2.9754,-2.9767,-2.9653,-2.9655,-2.9657,-2.974,0,-2.9228,-2.9312,-2.9316,-2.9394,-2.9434,-2.9423,-2.9466,-2.9494,-2.9506,-2.9543,-2.9558,-2.96,-2.9577,-2.9592,-2.9627,-2.9643,-2.969,-2.9637,-2.9692,-2.9694,-2.9682,-2.9782,-2.9794,-2.9871,-2.9751,-2.9753,-2.9754,0,-2.9331,-2.9365,-2.9446,-2.9476,-2.9493,-2.9531,-2.9571,-2.9606,-2.9638,-2.9645,-2.9673,-2.967,-2.9722,-2.9688,-2.976,-2.9724,-2.9747,-2.9759,-2.9762,-2.9766,-2.9727,-2.9787,-2.9896,-2.9907,-2.9772,-2.977,-2.9769,0,-2.9392,-2.9458,-2.9515,-2.9532,-2.9569,-2.9596,-2.9613,-2.9643,-2.9668,-2.9703,-2.972,-2.9762,-2.9784,-2.9817,-2.9826,-2.9801,-2.9898,-2.9865,-2.9905,-2.9905,-2.9924,-2.9923,-3.0037,-2.9942,-2.9942,-2.9942,-2.9941,0,-2.9479,-2.9529,-2.9543,-2.9578,-2.9634,-2.9639,-2.9695,-2.971,-2.9737,-2.9775,-2.977,-2.9807,-2.9817,-2.9857,-2.9865,-2.9923,-2.9934,-2.9941,-2.9942,-2.994,-2.9939,-2.9954,-2.9948,-2.9945,-2.9944,-2.9944,-2.9943,0,-2.9556,-2.9567,-2.9628,-2.9659,-2.9668,-2.9708,-2.9734,-2.9768,-2.9781,-2.983,-2.9842,-2.9861,-2.9907,-2.992,-2.9976,-2.9981,-3.0049,-3.0046,-3.0037,-3.0037,-3.0076,-3.0072,-3.0202,-3.0219,-3.0115,-3.0116,-3.0117,0,-2.9609,-2.9647,-2.9682,-2.9707,-2.9724,-2.9765,-2.9791,-2.9798,-2.9826,-2.9865,-2.9895,-2.994,-2.9976,-3.005,-3.007,-3.0113,-3.011,-3.0153,-3.0116,-3.0114,-3.0109,-3.0106,-3.011,-3.0159,-3.0161,-3.0161,-3.0162,0,-2.9703,-2.9707,-2.9744,-2.9783,-2.9814,-2.9846,-2.9876,-2.9897,-2.9909,-2.9941,-2.9987,-3.0015,-3.0071,-3.0116,-3.016,-3.0179,-3.0173,-3.0174,-3.0185,-3.0183,-3.0176,-3.0179,-3.0055,-3.017,-3.017,-3.0169,-3.0168,-3.0168,-2.9769,-2.9803,-2.9832,-2.9873,-2.9897,-2.9926,-2.9959,-2.9976,-3.0014,-3.0059,-3.0062,-3.0112,-3.0145,-3.0202,-3.0224,-3.0264,-3.0251,-3.0268,-3.0272,-3.0275,-3.0278,-3.0171,-3.0272,-3.0272,-3.0272,-3.0271,-3.0271,0,-2.9862,-2.9881,-2.9919,-2.9961,-2.9994,-2.9985,-3.0019,-3.0047,-3.0091,-3.0121,-3.0156,-3.021,-3.0254,-3.0278,-3.0322,-3.035,-3.0348,-3.0361,-3.0358,-3.0362,-3.0287,-3.0272,-3.0361,-3.0361,-3.0361,-3.0361,-3.0361,-3.0361,-2.9914,-2.9969,-2.9977,-3.0045,-3.0064,-3.0112,-3.0132,-3.0159,-3.0182,-3.0242,-3.0278,-3.0293,-3.0321,-3.0367,-3.0407,-3.0414,-3.0429,-3.0444,-3.0448,-3.0377,-3.0368,-3.0359,-3.0345,-3.0447,-3.0447,-3.0519,-3.052,-3.0521]},{"header":{"parameterUnit":"m.s-1","parameterCategory":1,"la1":30.2991,"la2":30.254,"lo1":-89.0895,"lo2":-89.0444,"dy":0.0017,"dx":0.0017,"nx":28,"ny":28,"refTime":"2024-12-17T03:00:00:Z","depth":0,"parameterNumber":3,"parameterNumberName":"V-component_of_WINDS"},"data":[0,0,0,0,0,0,0,0,0,0,0,0,0,0,0,0,0,0,0,0,0,0,0,0,0,0,0,0,0,0,0,0,0,0,0,0,0,0,0,0,0,0,0,0,0,0,0,0,0,0,0,0,0,0,0,0,0,0,1.1439,1.144,0,1.1539,1.154,1.1541,1.1636,1.1637,1.1639,1.164,1.1742,1.1744,1.1745,0,0,0,0,0,0,0,0,0,0,0,0,0,1.1331,1.1333,1.1439,1.144,1.1441,1.1538,1.154,1.1541,1.1636,1.1638,1.1639,1.164,1.1742,1.1743,1.1745,0,0,0,0,0,0,0,0,0,0,0,0,0,1.1399,1.1333,1.1438,1.15,1.1507,1.1538,1.154,1.1541,1.1636,1.1638,1.1639,1.1641,1.1741,1.1743,1.1746,1.1724,0,0,1.1753,1.1754,0,0,0,0,0,0,0,0,1.1395,1.1403,1.149,1.1496,1.1503,1.1577,1.154,1.1603,1.1635,1.1587,1.164,1.1642,1.1686,1.1693,1.1707,1.1729,1.1733,1.1753,1.1755,1.1756,1.1756,0,0,0,0,0,0,0,1.139,1.1399,1.1478,1.1491,1.1499,1.1523,1.1535,1.1552,1.1625,1.1591,1.1598,1.1609,1.169,1.1705,1.171,1.1735,1.1753,1.1755,1.1757,1.1758,1.1746,1.1744,0,0,0,0,0,0,1.1376,1.1395,1.1475,1.1481,1.1453,1.1524,1.1537,1.1551,1.1625,1.1638,1.1607,1.1613,1.17,1.1708,1.1714,1.1696,1.1756,1.1758,1.1759,1.1747,1.1745,1.1743,0,0,0,0,0,0,1.1373,1.1382,1.1471,1.144,1.1453,1.1524,1.1539,1.1552,1.1568,1.1637,1.165,1.1609,1.1702,1.1711,1.1721,1.1701,1.1759,1.1761,1.1749,1.1747,1.1744,1.1657,0,0,0,0,0,0,1.137,1.1381,1.1373,1.1439,1.1454,1.1476,1.1538,1.1553,1.1572,1.158,1.1643,1.1655,1.1704,1.1717,1.1724,1.1705,1.1763,1.1752,1.1748,1.1745,1.1662,1.1652,1.1643,0,0,0,0,0,1.1366,1.1344,1.1372,1.1381,1.1446,1.1474,1.1483,1.154,1.1569,1.1563,1.1607,1.1653,1.1701,1.1718,1.1726,1.1707,1.1753,1.1749,1.1745,1.1667,1.1654,1.1643,0,0,0,0,0,0,1.1274,1.1354,1.1386,1.1385,1.1422,1.149,1.1483,1.1525,1.1554,1.1561,1.163,1.1644,1.1647,1.1678,1.1694,1.1691,1.1734,1.1731,1.1671,1.166,1.165,1.1643,1.1765,0,0,0,0,0,1.1253,1.1269,1.1338,1.1331,1.1348,1.1412,1.1426,1.1467,1.1509,1.1525,1.157,1.1609,1.1634,1.1648,1.1674,1.1667,1.1683,1.1658,1.1649,1.164,1.1638,1.1639,1.1629,1.173,1.173,1.1731,0,0,1.1211,1.1257,1.1263,1.1313,1.1347,1.1363,1.1425,1.1438,1.1451,1.1527,1.154,1.1575,1.1623,1.1624,1.1628,1.1651,1.1613,1.1635,1.1628,1.1631,1.1634,1.1624,1.1615,1.1728,1.1728,1.1729,0,0,1.1143,1.1178,1.1177,1.1209,1.126,1.1303,1.1302,1.1365,1.1391,1.1405,1.1463,1.1479,1.1519,1.1551,1.1573,1.1518,1.1561,1.1524,1.1475,1.1475,1.1467,1.146,1.1442,1.1435,1.1521,1.1521,1.1521,0,1.1085,1.111,1.1171,1.1182,1.1203,1.1272,1.1272,1.1301,1.1357,1.137,1.1395,1.1448,1.1485,1.1497,1.1483,1.1498,1.1501,1.1518,1.1463,1.1457,1.1451,1.1435,1.1428,1.1516,1.1517,1.1517,1.1518,0,1.1037,1.1054,1.1047,1.11,1.112,1.1125,1.1187,1.12,1.1239,1.128,1.1294,1.1341,1.1379,1.1384,1.1422,1.1402,1.1415,1.145,1.1494,1.1436,1.1422,1.1417,1.151,1.1511,1.1513,1.1514,0,0,1.0915,1.1001,1.0998,1.1024,1.1084,1.1099,1.1107,1.1145,1.1156,1.1192,1.1202,1.1235,1.1268,1.1293,1.1335,1.1334,1.129,1.137,1.1373,1.1356,1.1273,1.1247,1.1239,1.1319,1.1318,1.1317,1.127,0,1.0859,1.0878,1.0933,1.0936,1.0954,1.102,1.1028,1.1066,1.1104,1.1125,1.1168,1.119,1.1232,1.1248,1.125,1.1295,1.1275,1.1299,1.133,1.133,1.1318,1.1232,1.1205,1.1158,1.1264,1.1264,1.1263,0,1.0796,1.0829,1.0833,1.0895,1.0904,1.091,1.095,1.0968,1.1013,1.1041,1.1069,1.1116,1.1129,1.1169,1.119,1.1205,1.1221,1.1245,1.1244,1.1251,1.1294,1.1238,1.1144,1.1138,1.1255,1.1255,1.1256,0,1.0709,1.0754,1.0763,1.0783,1.0854,1.0857,1.0887,1.0934,1.0953,1.0987,1.1001,1.1036,1.1055,1.1082,1.1137,1.116,1.1152,1.1196,1.1177,1.1176,1.1174,1.1174,1.1083,1.118,1.118,1.1181,1.1181,0,1.0642,1.0643,1.0725,1.0731,1.0735,1.0798,1.0799,1.0836,1.0877,1.0892,1.0951,1.0963,1.1035,1.1056,1.1099,1.1111,1.1119,1.1143,1.1155,1.1139,1.1136,1.1152,1.1157,1.1179,1.1179,1.118,1.118,0,1.0546,1.0601,1.0616,1.0682,1.0699,1.0699,1.0756,1.0765,1.0806,1.0824,1.0832,1.0897,1.0925,1.0983,1.1026,1.1056,1.1058,1.1078,1.1043,1.1051,1.1029,1.1031,1.0947,1.094,1.1039,1.1038,1.1037,0,1.0501,1.0503,1.057,1.0584,1.0611,1.0633,1.0653,1.0715,1.0734,1.0787,1.0789,1.0822,1.0852,1.0893,1.0945,1.0979,1.1002,1.097,1.1007,1.0992,1.1004,1.1004,1.1005,1.0962,1.0961,1.0959,1.0958,0,1.0415,1.0443,1.0469,1.0505,1.0528,1.0559,1.0594,1.0602,1.0673,1.0691,1.072,1.0743,1.0788,1.0821,1.0863,1.0894,1.0939,1.0946,1.0944,1.0929,1.0909,1.0922,1.1022,1.0948,1.0949,1.095,1.095,1.0951,1.0345,1.0351,1.0399,1.0427,1.046,1.0491,1.0503,1.0546,1.0572,1.0613,1.0648,1.0675,1.0722,1.0783,1.0812,1.0834,1.0856,1.0852,1.0851,1.085,1.0844,1.0904,1.0842,1.0842,1.0842,1.0843,1.0843,0,1.0265,1.0299,1.0324,1.0371,1.0393,1.0432,1.0473,1.0489,1.0512,1.0551,1.0579,1.0614,1.0646,1.07,1.0737,1.0744,1.0766,1.0752,1.0753,1.076,1.0822,1.0821,1.0734,1.0734,1.0734,1.0734,1.0734,1.0734,1.0226,1.0239,1.0271,1.0301,1.0336,1.0362,1.0382,1.0412,1.0444,1.048,1.0507,1.0542,1.0588,1.0628,1.066,1.0675,1.0686,1.0667,1.0688,1.0745,1.0756,1.0765,1.0765,1.0668,1.0668,1.0626,1.0625,1.0625]}]]